Location: Vihti�l�
(61.3833°N, 23.0667°E)
Time: 05:10:49
(UTC+00:00)

Cosmos 1833 Rocket - Pass Details

Date: 29 November 2020
Orbit: 834 x 838 km, 71.0° (Epoch: 22 January)

Event Time Altitude Azimuth Distance (km) Brightness Sun altitude
Exits shadow 05:07:49 16° 311° (NW) 2,054 4.1 -12.9°
Maximum altitude 05:12:06 50° 241° (WSW) 1,064 3.0 -12.4°
Drops below altitude 10° 05:17:29 10° 168° (SSE) 2,446 5.6 -11.8°
Sets 05:19:58 0° 163° (SSE) 3,376 6.5 -11.5°
